Weather History for Window Rock, AZ

Change the Weather History Date:

Sunday, March 2, 2014

  Actual Average Record
Temperature  
Mean Temperature 40 °F -  
Max Temperature 46 °F 50 °F 70 °F (2009)
Min Temperature 33 °F 25 °F 0 °F (2002)
Degree Days  
Heating Degree Days 26    
Moisture  
Dew Point 31 °F    
Average Humidity 81    
Maximum Humidity 92    
Minimum Humidity 56    
Precipitation  
Precipitation 0.12 in - - ()
Sea Level Pressure  
Sea Level Pressure 29.95 in    
Wind  
Wind Speed 4 mph (SW)    
Max Wind Speed 14 mph    
Max Gust Speed 20 mph    
Visibility 7 miles    
Events Rain , Snow    
Averages and records for this station are not official NWS values.
T = Trace of Precipitation, MM = Missing Value Source: NWS Daily Summary

Daily Weather History Graph

Daily Weather History Graph

Search for Another Location

Airport:

Trip Planner

Search our weather history database for the weather conditions in past years. The results will help you decide how hot, cold, wet, or windy it might be!

Date:

Astronomy

Mar. 02, 2014 Rise Set
Actual Time 6:44 AM MST 6:12 PM MST
Civil Twilight 6:19 AM MST 6:38 PM MST
Nautical Twilight 5:49 AM MST 7:07 PM MST
Astronomical Twilight 5:20 AM MST 7:37 PM MST
Moon 7:22 AM MST (3/2) 8:06 PM MST (3/2)
Length of Visible Light 12h 18m
Length of Day
11h 27m
Waxing Crescent, 3% of the Moon is Illuminated
Mar 2
Waxing Crescent
Mar 8
First Quarter
Mar 16
Full
Mar 23
Last Quarter
Mar 30
New

Hourly Weather History & Observations

Time (MST) Temp. Windchill Dew Point Humidity Pressure Visibility Wind Dir Wind Speed Gust Speed Precip Events Conditions
12:10 AM 35.1 °F - 32.0 °F 89% 29.90 in 6.0 mi Calm Calm - 0.00 in Rain Light Rain
12:19 AM 35.1 °F - 32.0 °F 89% 29.89 in 6.0 mi Calm Calm - 0.00 in Rain Light Rain
12:40 AM 35.1 °F - 32.0 °F 89% 29.90 in 6.0 mi Calm Calm - 0.00 in   Overcast
12:53 AM 35.1 °F - 32.0 °F 89% 29.78 in 8.0 mi North - - 0.00 in Rain Light Rain
1:02 AM 35.1 °F - 32.0 °F 89% 29.90 in 9.0 mi Calm Calm - 0.00 in Rain Light Rain
1:09 AM 36.0 °F 29.0 °F 32.0 °F 86% 29.89 in 7.0 mi South 9.2 mph - 0.01 in Rain Light Rain
1:18 AM 36.0 °F 29.0 °F 32.0 °F 86% 29.89 in 7.0 mi South 9.2 mph - 0.02 in Rain Light Rain
1:53 AM 35.1 °F 29.3 °F 32.0 °F 89% 29.78 in 3.0 mi South 6.9 mph - 0.05 in Snow Light Snow
2:07 AM 35.1 °F 28.6 °F 32.0 °F 89% 29.88 in 4.0 mi SSW 8.1 mph - 0.00 in Snow Light Snow
2:15 AM 34.0 °F 26.6 °F 30.9 °F 89% 29.88 in 4.0 mi SSW 9.2 mph - 0.00 in Snow Light Snow
2:26 AM 34.0 °F 27.2 °F 30.9 °F 89% 29.89 in 2.0 mi SSW 8.1 mph - 0.01 in Snow Light Snow
2:35 AM 34.0 °F 28.8 °F 30.9 °F 89% 29.89 in 1.5 mi SSW 5.8 mph - 0.02 in Snow Light Snow
2:53 AM 34.0 °F 31.0 °F 32.0 °F 92% 29.80 in 1.0 mi SW 3.5 mph - 0.03 in Snow Light Snow
3:14 AM 34.0 °F - 30.9 °F 89% 29.89 in 2.0 mi Calm Calm - 0.02 in Snow Light Snow
3:37 AM 34.0 °F - 32.0 °F 92% 29.88 in 3.0 mi Calm Calm - 0.02 in Snow Light Snow
3:45 AM 34.0 °F - 32.0 °F 92% 29.88 in 7.0 mi Calm Calm - 0.02 in Snow Light Snow
3:53 AM 34.0 °F - 32.0 °F 92% 29.79 in 9.0 mi Calm Calm - 0.02 in   Overcast
4:53 AM 35.1 °F 31.0 °F 30.9 °F 85% 29.81 in 10.0 mi SSW 4.6 mph - N/A   Overcast
5:21 AM 34.0 °F 28.0 °F 30.9 °F 89% 29.92 in 10.0 mi South 6.9 mph - N/A   Overcast
5:31 AM 35.1 °F 28.6 °F 30.9 °F 85% 29.92 in 10.0 mi SSW 8.1 mph - N/A   Overcast
5:53 AM 35.1 °F 31.0 °F 30.9 °F 85% 29.83 in 10.0 mi West 4.6 mph - N/A   Overcast
6:53 AM 35.1 °F 32.2 °F 30.9 °F 85% 29.88 in 10.0 mi SW 3.5 mph - N/A   Overcast
7:06 AM 35.1 °F 32.2 °F 30.9 °F 85% 29.98 in 3.0 mi West 3.5 mph - 0.00 in Snow Light Snow
7:13 AM 34.0 °F 31.0 °F 30.9 °F 89% 29.98 in 2.5 mi SSW 3.5 mph - 0.00 in Snow Light Snow
7:17 AM 34.0 °F 31.0 °F 32.0 °F 92% 29.98 in 3.0 mi South 3.5 mph - 0.00 in Snow Light Snow
7:29 AM 34.0 °F 31.0 °F 32.0 °F 92% 29.99 in 8.0 mi SSE 3.5 mph - 0.00 in   Overcast
7:37 AM 34.0 °F 29.8 °F 30.9 °F 89% 30.00 in 8.0 mi SSW 4.6 mph - 0.00 in   Overcast
7:43 AM 34.0 °F 28.8 °F 30.9 °F 89% 30.00 in 2.0 mi SSW 5.8 mph - 0.00 in Snow Light Snow
7:50 AM 33.8 °F 29.6 °F 30.2 °F 87% 30.00 in 1.2 mi SW 4.6 mph - 0.01 in Snow Light Snow
7:53 AM 34.0 °F 29.8 °F 30.9 °F 89% 29.93 in 1.2 mi SW 4.6 mph - 0.01 in Snow Light Snow
8:07 AM 34.0 °F 31.0 °F 30.9 °F 89% 30.01 in 2.0 mi SW 3.5 mph - 0.00 in Snow Light Snow
8:22 AM 34.0 °F - 30.9 °F 89% 30.02 in 1.8 mi Calm Calm - 0.00 in Snow Light Snow
8:27 AM 34.0 °F - 32.0 °F 92% 30.03 in 3.0 mi Calm Calm - 0.00 in Snow Light Snow
8:53 AM 36.0 °F - 32.0 °F 86% 29.96 in 9.0 mi Calm Calm - 0.01 in   Overcast
9:38 AM 39.0 °F 35.7 °F 33.1 °F 79% 30.06 in 10.0 mi West 4.6 mph - N/A   Mostly Cloudy
9:53 AM 39.9 °F 33.9 °F 33.1 °F 77% 29.98 in 10.0 mi NW 9.2 mph - N/A   Mostly Cloudy
10:53 AM 41.0 °F 33.9 °F 33.1 °F 73% 29.99 in 10.0 mi WNW 12.7 mph - N/A   Overcast
11:28 AM 43.0 °F 37.2 °F 33.1 °F 68% 30.09 in 10.0 mi West 10.4 mph - N/A   Scattered Clouds
11:53 AM 43.0 °F 36.0 °F 30.9 °F 62% 30.00 in 10.0 mi WNW 13.8 mph 19.6 mph N/A   Partly Cloudy
12:53 PM 43.0 °F 37.2 °F 30.9 °F 62% 29.99 in 10.0 mi West 10.4 mph - N/A   Mostly Cloudy
1:53 PM 44.1 °F 40.1 °F 32.0 °F 63% 29.98 in 10.0 mi West 6.9 mph - N/A   Mostly Cloudy
2:01 PM 43.0 °F 36.4 °F 32.0 °F 65% 30.09 in 10.0 mi WSW 12.7 mph - N/A   Mostly Cloudy
2:35 PM 44.1 °F 37.7 °F 30.9 °F 60% 30.09 in 10.0 mi WSW 12.7 mph - N/A   Overcast
2:53 PM 45.0 °F 40.1 °F 30.9 °F 58% 29.99 in 10.0 mi West 9.2 mph - N/A   Mostly Cloudy
3:53 PM 46.0 °F 42.5 °F 30.9 °F 56% 29.99 in 10.0 mi WNW 6.9 mph 17.3 mph N/A   Scattered Clouds
4:53 PM 46.0 °F 41.0 °F 30.9 °F 56% 29.98 in 10.0 mi WSW 10.4 mph - N/A   Scattered Clouds
5:53 PM 43.0 °F 41.3 °F 32.0 °F 65% 30.01 in 10.0 mi West 3.5 mph - N/A   Scattered Clouds
6:53 PM 39.0 °F 34.8 °F 32.0 °F 76% 30.04 in 10.0 mi SSW 5.8 mph - N/A   Scattered Clouds
7:53 PM 37.0 °F - 30.0 °F 76% 30.07 in 10.0 mi Calm Calm - N/A   Clear
8:53 PM 37.0 °F - 28.9 °F 73% 30.07 in 10.0 mi Calm Calm - N/A   Clear
9:53 PM 37.0 °F - 28.9 °F 73% 30.08 in 10.0 mi Calm Calm - N/A   Mostly Cloudy
10:53 PM 35.1 °F 32.2 °F 28.9 °F 78% 30.09 in 10.0 mi ENE 3.5 mph - N/A   Clear
11:53 PM 34.0 °F 31.0 °F 28.9 °F 82% 30.07 in 10.0 mi NNW 3.5 mph - N/A   Clear